Location: Moscow
(38.8570°N, 84.2291°W)
Time: 15:40:10
(UTC+00:00)

SL-12 R/B(2) - Pass Details

Date: 15 November 2025
Orbit: 1173 x 2175 km, 63.4° (Epoch: 06 December)

Event Time Altitude Azimuth Distance (km) Brightness Sun altitude
Rises 23:17:16 0° 212° (SSW) 4,105 7.6 -10.8°
Reaches altitude 10° 23:19:50 10° 213° (SSW) 3,198 6.9 -11.3°
Maximum altitude 23:27:30 87° 303° (WNW) 1,385 4.3 -12.7°
Drops below altitude 10° 23:36:49 10° 33° (NNE) 3,837 6.2 -14.5°
Enters shadow 23:39:01 - 34° (NE) 4,582 6.6 -14.9°
